Time,TemperatureF,DewpointF,PressureIn,WindDirection,WindDirectionDegrees,WindSpeedMPH,WindSpeedGustMPH,Humidity,HourlyPrecipIn,Conditions,Clouds,dailyrainin,SoftwareType,DateUTC
2013-08-30 00:01:00,59.5,43.9,29.83,SE,133,3.0,6.0,56,0.00,,,0.00,meteohub,2013-08-30 06:01:00,
2013-08-30 00:06:00,59.5,44.2,29.83,SE,124,3.0,7.0,57,0.00,,,0.00,meteohub,2013-08-30 06:06:00,
2013-08-30 00:11:00,59.4,44.6,29.83,SSE,155,4.0,7.0,58,0.00,,,0.00,meteohub,2013-08-30 06:11:00,
2013-08-30 00:17:00,59.2,44.4,29.83,ESE,114,3.0,7.0,58,0.00,,,0.00,meteohub,2013-08-30 06:17:00,
2013-08-30 00:22:00,59.0,44.8,29.83,SE,139,3.0,7.0,59,0.00,,,0.00,meteohub,2013-08-30 06:22:00,
2013-08-30 00:27:00,58.8,45.0,29.84,South,169,3.0,7.0,60,0.00,,,0.00,meteohub,2013-08-30 06:27:00,
2013-08-30 00:32:00,58.8,45.0,29.83,SE,140,2.0,6.0,60,0.00,,,0.00,meteohub,2013-08-30 06:32:00,
2013-08-30 00:37:00,59.0,45.1,29.83,ESE,110,3.0,6.0,60,0.00,,,0.00,meteohub,2013-08-30 06:37:00,
2013-08-30 00:42:00,59.2,45.3,29.83,SSE,159,3.0,6.0,60,0.00,,,0.00,meteohub,2013-08-30 06:42:00,
2013-08-30 00:47:00,59.2,45.7,29.83,SSE,158,2.0,6.0,61,0.00,,,0.00,meteohub,2013-08-30 06:47:00,
2013-08-30 00:52:00,59.4,45.9,29.83,SSE,149,3.0,6.0,61,0.00,,,0.00,meteohub,2013-08-30 06:52:00,
2013-08-30 00:57:00,59.2,45.7,29.83,SE,139,1.0,5.0,61,0.00,,,0.00,meteohub,2013-08-30 06:57:00,
2013-08-30 01:02:00,59.0,45.5,29.83,SE,145,2.0,5.0,61,0.00,,,0.00,meteohub,2013-08-30 07:02:00,
2013-08-30 01:07:00,58.6,45.7,29.83,SSE,162,2.0,5.0,62,0.00,,,0.00,meteohub,2013-08-30 07:07:00,
2013-08-30 01:12:00,58.5,45.9,29.83,SE,141,1.0,6.0,63,0.00,,,0.00,meteohub,2013-08-30 07:12:00,
2013-08-30 01:17:00,58.5,45.9,29.83,SE,141,3.0,6.0,63,0.00,,,0.00,meteohub,2013-08-30 07:17:00,
2013-08-30 01:23:00,58.5,45.9,29.83,SSW,195,1.0,6.0,63,0.00,,,0.00,meteohub,2013-08-30 07:23:00,
2013-08-30 01:28:00,58.3,45.7,29.83,SW,221,2.0,6.0,63,0.00,,,0.00,meteohub,2013-08-30 07:28:00,
2013-08-30 01:33:00,58.1,46.0,29.83,West,264,2.0,6.0,64,0.00,,,0.00,meteohub,2013-08-30 07:33:00,
2013-08-30 01:38:00,57.7,45.7,29.83,WSW,241,1.0,6.0,64,0.00,,,0.00,meteohub,2013-08-30 07:38:00,
2013-08-30 01:43:00,57.7,46.0,29.83,SSW,203,1.0,6.0,65,0.00,,,0.00,meteohub,2013-08-30 07:43:00,
2013-08-30 01:48:00,57.6,45.9,29.83,SSW,198,0.0,4.0,65,0.00,,,0.00,meteohub,2013-08-30 07:48:00,
2013-08-30 01:53:00,57.4,45.7,29.83,South,169,0.0,3.0,65,0.00,,,0.00,meteohub,2013-08-30 07:53:00,
2013-08-30 01:58:00,57.0,45.3,29.83,South,169,0.0,2.0,65,0.00,,,0.00,meteohub,2013-08-30 07:58:00,
2013-08-30 02:03:00,56.7,45.5,29.83,WSW,250,0.0,2.0,66,0.00,,,0.00,meteohub,2013-08-30 08:03:00,
2013-08-30 02:08:00,56.5,45.3,29.83,WSW,250,0.0,2.0,66,0.00,,,0.00,meteohub,2013-08-30 08:08:00,
2013-08-30 02:13:00,56.1,45.3,29.83,WSW,250,0.0,2.0,67,0.00,,,0.00,meteohub,2013-08-30 08:13:00,
2013-08-30 02:18:00,56.1,45.3,29.83,WSW,250,0.0,1.0,67,0.00,,,0.00,meteohub,2013-08-30 08:18:00,
2013-08-30 02:23:00,55.9,45.5,29.83,SE,134,0.0,1.0,68,0.00,,,0.00,meteohub,2013-08-30 08:23:00,
2013-08-30 02:29:00,55.8,45.7,29.83,NW,320,0.0,2.0,69,0.00,,,0.00,meteohub,2013-08-30 08:29:00,
2013-08-30 02:34:00,55.8,45.7,29.83,SSW,194,1.0,2.0,69,0.00,,,0.00,meteohub,2013-08-30 08:34:00,
2013-08-30 02:39:00,55.9,45.9,29.83,SSE,158,1.0,2.0,69,0.00,,,0.00,meteohub,2013-08-30 08:39:00,
2013-08-30 02:44:00,55.9,45.9,29.83,SSW,204,0.0,4.0,69,0.00,,,0.00,meteohub,2013-08-30 08:44:00,
2013-08-30 02:49:00,55.8,45.7,29.83,SSW,201,0.0,4.0,69,0.00,,,0.00,meteohub,2013-08-30 08:49:00,
2013-08-30 02:54:00,55.4,45.3,29.82,SSW,201,0.0,2.0,69,0.00,,,0.00,meteohub,2013-08-30 08:54:00,
2013-08-30 02:59:00,55.0,45.5,29.82,South,169,0.0,2.0,70,0.00,,,0.00,meteohub,2013-08-30 08:59:00,
2013-08-30 03:04:00,54.9,45.7,29.82,South,169,0.0,1.0,71,0.00,,,0.00,meteohub,2013-08-30 09:04:00,
2013-08-30 03:09:00,55.0,45.9,29.82,SE,135,1.0,1.0,71,0.00,,,0.00,meteohub,2013-08-30 09:09:00,
2013-08-30 03:14:00,54.9,45.7,29.82,ESE,120,1.0,1.0,71,0.00,,,0.00,meteohub,2013-08-30 09:14:00,
2013-08-30 03:19:00,54.7,45.9,29.82,East,101,0.0,1.0,72,0.00,,,0.00,meteohub,2013-08-30 09:19:00,
2013-08-30 03:24:00,54.5,45.7,29.82,ESE,105,1.0,2.0,72,0.00,,,0.00,meteohub,2013-08-30 09:24:00,
2013-08-30 03:29:00,54.5,46.0,29.82,ESE,105,0.0,2.0,73,0.00,,,0.00,meteohub,2013-08-30 09:29:00,
2013-08-30 03:34:00,54.9,46.0,29.82,WNW,284,0.0,2.0,72,0.00,,,0.00,meteohub,2013-08-30 09:34:00,
2013-08-30 03:39:00,55.0,45.9,29.82,South,190,0.0,2.0,71,0.00,,,0.00,meteohub,2013-08-30 09:39:00,
2013-08-30 03:44:00,55.2,46.0,29.82,South,189,0.0,2.0,71,0.00,,,0.00,meteohub,2013-08-30 09:44:00,
2013-08-30 03:49:00,55.2,46.0,29.82,SSW,193,0.0,2.0,71,0.00,,,0.00,meteohub,2013-08-30 09:49:00,
2013-08-30 03:55:00,55.0,45.9,29.82,SSW,193,0.0,2.0,71,0.00,,,0.00,meteohub,2013-08-30 09:55:00,
2013-08-30 04:00:00,54.9,45.3,29.82,SSW,193,0.0,1.0,70,0.00,,,0.00,meteohub,2013-08-30 10:00:00,
2013-08-30 04:05:00,54.3,44.4,29.82,SSW,193,0.0,0.0,69,0.00,,,0.00,meteohub,2013-08-30 10:05:00,
2013-08-30 04:10:00,54.1,44.2,29.82,SSE,158,0.0,0.0,69,0.00,,,0.00,meteohub,2013-08-30 10:10:00,
2013-08-30 04:15:00,54.1,45.0,29.82,SE,139,0.0,1.0,71,0.00,,,0.00,meteohub,2013-08-30 10:15:00,
2013-08-30 04:20:00,54.3,45.1,29.82,SE,140,0.0,1.0,71,0.00,,,0.00,meteohub,2013-08-30 10:20:00,
2013-08-30 04:25:00,54.3,45.5,29.82,East,101,0.0,1.0,72,0.00,,,0.00,meteohub,2013-08-30 10:25:00,
2013-08-30 04:30:00,54.1,45.3,29.82,ESE,108,0.0,2.0,72,0.00,,,0.00,meteohub,2013-08-30 10:30:00,
2013-08-30 04:35:00,54.1,45.3,29.82,ESE,108,0.0,2.0,72,0.00,,,0.00,meteohub,2013-08-30 10:35:00,
2013-08-30 04:40:00,53.8,45.0,29.82,ESE,107,0.0,1.0,72,0.00,,,0.00,meteohub,2013-08-30 10:40:00,
2013-08-30 04:45:00,53.4,45.0,29.82,ESE,108,1.0,1.0,73,0.00,,,0.00,meteohub,2013-08-30 10:45:00,
2013-08-30 04:50:00,53.4,44.2,29.82,ESE,108,1.0,1.0,71,0.00,,,0.00,meteohub,2013-08-30 10:50:00,
2013-08-30 04:55:00,53.4,44.2,29.82,ESE,108,0.0,1.0,71,0.00,,,0.00,meteohub,2013-08-30 10:55:00,
2013-08-30 05:00:00,53.4,44.2,29.82,ESE,108,0.0,1.0,71,0.00,,,0.00,meteohub,2013-08-30 11:00:00,
2013-08-30 05:05:00,53.2,44.4,29.83,ESE,108,0.0,1.0,72,0.00,,,0.00,meteohub,2013-08-30 11:05:00,
2013-08-30 05:10:00,53.1,44.2,29.83,ESE,108,0.0,0.0,72,0.00,,,0.00,meteohub,2013-08-30 11:10:00,
2013-08-30 05:15:00,52.5,44.1,29.83,ESE,108,0.0,0.0,73,0.00,,,0.00,meteohub,2013-08-30 11:15:00,
2013-08-30 05:20:00,52.2,44.1,29.83,ESE,108,0.0,0.0,74,0.00,,,0.00,meteohub,2013-08-30 11:20:00,
2013-08-30 05:26:00,52.5,44.4,29.83,ESE,108,0.0,0.0,74,0.00,,,0.00,meteohub,2013-08-30 11:26:00,
2013-08-30 05:31:00,52.5,44.4,29.83,ESE,108,0.0,0.0,74,0.00,,,0.00,meteohub,2013-08-30 11:31:00,
2013-08-30 05:36:00,52.7,44.2,29.83,ESE,108,0.0,0.0,73,0.00,,,0.00,meteohub,2013-08-30 11:36:00,
2013-08-30 05:41:00,52.5,44.1,29.83,ESE,108,0.0,0.0,73,0.00,,,0.00,meteohub,2013-08-30 11:41:00,
2013-08-30 05:46:00,52.3,43.5,29.83,ESE,108,0.0,0.0,72,0.00,,,0.00,meteohub,2013-08-30 11:46:00,
2013-08-30 05:51:00,52.9,43.7,29.83,ESE,108,0.0,1.0,71,0.00,,,0.00,meteohub,2013-08-30 11:51:00,
2013-08-30 05:56:00,53.2,43.7,29.83,ESE,108,0.0,1.0,70,0.00,,,0.00,meteohub,2013-08-30 11:56:00,
2013-08-30 06:01:00,53.1,43.5,29.83,ESE,108,0.0,1.0,70,0.00,,,0.00,meteohub,2013-08-30 12:01:00,
2013-08-30 06:06:00,53.2,43.7,29.83,ESE,107,0.0,0.0,70,0.00,,,0.00,meteohub,2013-08-30 12:06:00,
2013-08-30 06:11:00,53.6,44.1,29.83,East,94,1.0,2.0,70,0.00,,,0.00,meteohub,2013-08-30 12:11:00,
2013-08-30 06:16:00,53.8,43.9,29.83,East,94,0.0,2.0,69,0.00,,,0.00,meteohub,2013-08-30 12:16:00,
2013-08-30 06:21:00,53.4,43.9,29.83,East,94,0.0,2.0,70,0.00,,,0.00,meteohub,2013-08-30 12:21:00,
2013-08-30 06:26:00,53.1,43.9,29.83,East,95,0.0,2.0,71,0.00,,,0.00,meteohub,2013-08-30 12:26:00,
2013-08-30 06:31:00,53.1,43.9,29.84,East,95,1.0,1.0,71,0.00,,,0.00,meteohub,2013-08-30 12:31:00,
2013-08-30 06:37:00,53.1,43.9,29.84,East,95,0.0,1.0,71,0.00,,,0.00,meteohub,2013-08-30 12:37:00,
2013-08-30 06:42:00,53.1,44.2,29.84,East,94,1.0,1.0,72,0.00,,,0.00,meteohub,2013-08-30 12:42:00,
2013-08-30 06:47:00,52.9,44.1,29.84,East,94,1.0,1.0,72,0.00,,,0.00,meteohub,2013-08-30 12:47:00,
2013-08-30 06:52:00,52.7,43.9,29.84,NNW,341,1.0,2.0,72,0.00,,,0.00,meteohub,2013-08-30 12:52:00,
2013-08-30 06:57:00,52.7,43.9,29.84,NNW,341,0.0,2.0,72,0.00,,,0.00,meteohub,2013-08-30 12:57:00,
2013-08-30 07:02:00,52.5,43.7,29.84,NNW,342,0.0,2.0,72,0.00,,,0.00,meteohub,2013-08-30 13:02:00,
2013-08-30 07:07:00,52.7,43.2,29.84,NNW,342,1.0,1.0,70,0.00,,,0.00,meteohub,2013-08-30 13:07:00,
2013-08-30 07:12:00,53.1,42.8,29.85,NNW,341,1.0,1.0,68,0.00,,,0.00,meteohub,2013-08-30 13:12:00,
2013-08-30 07:17:00,53.4,42.8,29.85,NNW,341,1.0,1.0,67,0.00,,,0.00,meteohub,2013-08-30 13:17:00,
2013-08-30 07:22:00,53.8,43.5,29.85,NNW,342,1.0,1.0,68,0.00,,,0.00,meteohub,2013-08-30 13:22:00,
2013-08-30 07:27:00,54.3,43.5,29.85,NNW,341,1.0,1.0,67,0.00,,,0.00,meteohub,2013-08-30 13:27:00,
2013-08-30 07:32:00,54.9,44.1,29.85,NNW,329,1.0,2.0,67,0.00,,,0.00,meteohub,2013-08-30 13:32:00,
2013-08-30 07:37:00,55.4,44.6,29.85,NNW,329,1.0,2.0,67,0.00,,,0.00,meteohub,2013-08-30 13:37:00,
2013-08-30 07:42:00,55.4,43.3,29.85,NNW,329,0.0,2.0,64,0.00,,,0.00,meteohub,2013-08-30 13:42:00,
2013-08-30 07:47:00,55.4,43.9,29.85,NNW,329,0.0,2.0,65,0.00,,,0.00,meteohub,2013-08-30 13:47:00,
2013-08-30 07:52:00,55.6,44.1,29.85,NNW,328,0.0,2.0,65,0.00,,,0.00,meteohub,2013-08-30 13:52:00,
2013-08-30 07:57:00,55.6,44.1,29.85,NNW,329,0.0,0.0,65,0.00,,,0.00,meteohub,2013-08-30 13:57:00,
2013-08-30 08:02:00,55.8,43.3,29.85,NNW,330,2.0,2.0,63,0.00,,,0.00,meteohub,2013-08-30 14:02:00,
2013-08-30 08:07:00,56.5,43.7,29.85,NW,315,2.0,2.0,62,0.00,,,0.00,meteohub,2013-08-30 14:07:00,
2013-08-30 08:12:00,56.7,43.3,29.85,NW,314,0.0,2.0,61,0.00,,,0.00,meteohub,2013-08-30 14:12:00,
2013-08-30 08:17:00,56.7,42.4,29.85,NW,314,1.0,2.0,59,0.00,,,0.00,meteohub,2013-08-30 14:17:00,
2013-08-30 08:22:00,56.7,42.4,29.85,NNW,334,1.0,2.0,59,0.00,,,0.00,meteohub,2013-08-30 14:22:00,
2013-08-30 08:27:00,56.8,42.3,29.85,NNW,334,0.0,2.0,58,0.00,,,0.00,meteohub,2013-08-30 14:27:00,
2013-08-30 08:32:00,57.0,41.5,29.85,NNW,334,1.0,2.0,56,0.00,,,0.00,meteohub,2013-08-30 14:32:00,
2013-08-30 08:37:00,57.0,41.9,29.85,NNW,335,1.0,2.0,57,0.00,,,0.00,meteohub,2013-08-30 14:37:00,
2013-08-30 08:42:00,57.2,43.0,29.86,NNW,333,1.0,2.0,59,0.00,,,0.00,meteohub,2013-08-30 14:42:00,
2013-08-30 08:47:00,57.2,41.7,29.86,NNW,330,1.0,2.0,56,0.00,,,0.00,meteohub,2013-08-30 14:47:00,
2013-08-30 08:52:00,57.6,41.9,29.86,NW,326,3.0,3.0,56,0.00,,,0.00,meteohub,2013-08-30 14:52:00,
2013-08-30 08:57:00,57.9,41.4,29.85,NNW,337,2.0,5.0,54,0.00,,,0.00,meteohub,2013-08-30 14:57:00,
2013-08-30 09:02:00,58.5,41.9,29.85,NNW,333,1.0,5.0,54,0.00,,,0.00,meteohub,2013-08-30 15:02:00,
2013-08-30 09:07:00,59.2,41.5,29.85,NW,319,2.0,5.0,52,0.00,,,0.00,meteohub,2013-08-30 15:07:00,
2013-08-30 09:12:00,59.9,44.2,29.85,NW,323,3.0,4.0,56,0.00,,,0.00,meteohub,2013-08-30 15:12:00,
2013-08-30 09:17:00,61.0,46.0,29.85,NW,317,2.0,4.0,58,0.00,,,0.00,meteohub,2013-08-30 15:17:00,
2013-08-30 09:22:00,61.5,45.1,29.84,NW,320,3.0,4.0,55,0.00,,,0.00,meteohub,2013-08-30 15:22:00,
2013-08-30 09:27:00,62.1,45.1,29.84,NW,320,3.0,4.0,54,0.00,,,0.00,meteohub,2013-08-30 15:27:00,
2013-08-30 09:32:00,62.2,45.3,29.84,NNW,327,2.0,4.0,54,0.00,,,0.00,meteohub,2013-08-30 15:32:00,
2013-08-30 09:37:00,63.0,46.0,29.84,NW,314,2.0,4.0,54,0.00,,,0.00,meteohub,2013-08-30 15:37:00,
2013-08-30 09:42:00,63.9,45.9,29.84,NW,305,2.0,5.0,52,0.00,,,0.00,meteohub,2013-08-30 15:42:00,
2013-08-30 09:47:00,64.2,44.6,29.83,NW,323,2.0,5.0,49,0.00,,,0.00,meteohub,2013-08-30 15:47:00,
2013-08-30 09:52:00,64.6,44.4,29.83,NW,313,1.0,5.0,48,0.00,,,0.00,meteohub,2013-08-30 15:52:00,
2013-08-30 09:57:00,64.6,45.0,29.84,NW,321,1.0,4.0,49,0.00,,,0.00,meteohub,2013-08-30 15:57:00,
2013-08-30 10:02:00,64.9,44.8,29.83,NW,318,2.0,3.0,48,0.00,,,0.00,meteohub,2013-08-30 16:02:00,
2013-08-30 10:07:00,65.1,43.3,29.83,NW,316,3.0,5.0,45,0.00,,,0.00,meteohub,2013-08-30 16:07:00,
2013-08-30 10:12:00,65.5,42.4,29.83,NW,314,2.0,6.0,43,0.00,,,0.00,meteohub,2013-08-30 16:12:00,
2013-08-30 10:17:00,66.2,42.4,29.83,NNW,332,3.0,6.0,42,0.00,,,0.00,meteohub,2013-08-30 16:17:00,
2013-08-30 10:22:00,66.2,43.0,29.83,NW,325,5.0,8.0,43,0.00,,,0.00,meteohub,2013-08-30 16:22:00,
2013-08-30 10:27:00,67.3,44.1,29.83,West,264,1.0,8.0,43,0.00,,,0.00,meteohub,2013-08-30 16:27:00,
2013-08-30 10:32:00,68.2,43.5,29.82,NW,318,1.0,8.0,41,0.00,,,0.00,meteohub,2013-08-30 16:32:00,
2013-08-30 10:37:00,68.7,45.3,29.82,NNW,336,4.0,8.0,43,0.00,,,0.00,meteohub,2013-08-30 16:37:00,
2013-08-30 10:42:00,69.4,44.1,29.83,NNW,347,2.0,8.0,40,0.00,,,0.00,meteohub,2013-08-30 16:42:00,
2013-08-30 10:47:00,69.6,44.2,29.82,NNW,341,3.0,8.0,40,0.00,,,0.00,meteohub,2013-08-30 16:47:00,
2013-08-30 10:52:00,70.0,43.2,29.82,NNW,328,4.0,7.0,38,0.00,,,0.00,meteohub,2013-08-30 16:52:00,
2013-08-30 10:57:00,70.5,44.4,29.82,NNW,331,3.0,6.0,39,0.00,,,0.00,meteohub,2013-08-30 16:57:00,
2013-08-30 11:02:00,71.6,41.0,29.82,NW,314,2.0,6.0,33,0.00,,,0.00,meteohub,2013-08-30 17:02:00,
2013-08-30 11:07:00,72.5,40.1,29.81,NNW,330,4.0,6.0,31,0.00,,,0.00,meteohub,2013-08-30 17:07:00,
2013-08-30 11:12:00,72.1,40.6,29.81,NW,322,3.0,7.0,32,0.00,,,0.00,meteohub,2013-08-30 17:12:00,
2013-08-30 11:17:00,72.3,39.2,29.81,NNW,327,4.0,7.0,30,0.00,,,0.00,meteohub,2013-08-30 17:17:00,
2013-08-30 11:22:00,72.3,39.9,29.81,NW,316,4.0,7.0,31,0.00,,,0.00,meteohub,2013-08-30 17:22:00,
2013-08-30 11:27:00,72.9,39.6,29.81,NNW,330,4.0,7.0,30,0.00,,,0.00,meteohub,2013-08-30 17:27:00,
2013-08-30 11:32:00,72.9,39.6,29.81,NNW,345,2.0,7.0,30,0.00,,,0.00,meteohub,2013-08-30 17:32:00,
2013-08-30 11:37:00,73.8,40.5,29.81,NW,314,1.0,7.0,30,0.00,,,0.00,meteohub,2013-08-30 17:37:00,
2013-08-30 11:42:00,73.9,38.8,29.80,NNW,338,4.0,7.0,28,0.00,,,0.00,meteohub,2013-08-30 17:42:00,
2013-08-30 11:47:00,74.5,38.3,29.80,NW,309,2.0,8.0,27,0.00,,,0.00,meteohub,2013-08-30 17:47:00,
2013-08-30 11:52:00,74.5,37.4,29.80,WNW,283,2.0,8.0,26,0.00,,,0.00,meteohub,2013-08-30 17:52:00,
2013-08-30 11:57:00,74.7,39.4,29.80,WNW,297,1.0,8.0,28,0.00,,,0.00,meteohub,2013-08-30 17:57:00,
2013-08-30 12:02:00,75.6,39.2,29.79,NW,319,2.0,7.0,27,0.00,,,0.00,meteohub,2013-08-30 18:02:00,
2013-08-30 12:07:00,76.3,40.8,29.80,WNW,293,3.0,7.0,28,0.00,,,0.00,meteohub,2013-08-30 18:07:00,
2013-08-30 12:12:00,76.5,37.9,29.80,ESE,106,2.0,7.0,25,0.00,,,0.00,meteohub,2013-08-30 18:12:00,
2013-08-30 12:17:00,76.3,36.9,29.79,South,191,0.0,7.0,24,0.00,,,0.00,meteohub,2013-08-30 18:17:00,
2013-08-30 12:22:00,76.6,38.1,29.79,NW,319,2.0,4.0,25,0.00,,,0.00,meteohub,2013-08-30 18:22:00,
2013-08-30 12:27:00,77.5,37.9,29.79,WNW,294,3.0,4.0,24,0.00,,,0.00,meteohub,2013-08-30 18:27:00,
2013-08-30 12:32:00,77.5,37.9,29.79,NW,323,4.0,7.0,24,0.00,,,0.00,meteohub,2013-08-30 18:32:00,
2013-08-30 12:37:00,77.4,37.8,29.79,NNW,330,2.0,7.0,24,0.00,,,0.00,meteohub,2013-08-30 18:37:00,
2013-08-30 12:42:00,77.4,37.8,29.79,WNW,291,1.0,7.0,24,0.00,,,0.00,meteohub,2013-08-30 18:42:00,
2013-08-30 12:47:00,77.4,37.8,29.79,SE,137,0.0,10.0,24,0.00,,,0.00,meteohub,2013-08-30 18:47:00,
2013-08-30 12:52:00,77.5,39.0,29.78,NW,319,2.0,10.0,25,0.00,,,0.00,meteohub,2013-08-30 18:52:00,
2013-08-30 12:57:00,78.3,38.5,29.78,West,270,0.0,10.0,24,0.00,,,0.00,meteohub,2013-08-30 18:57:00,
2013-08-30 13:02:00,78.8,37.9,29.78,NNW,331,5.0,7.0,23,0.00,,,0.00,meteohub,2013-08-30 19:02:00,
2013-08-30 13:07:00,77.5,37.9,29.78,WNW,302,3.0,8.0,24,0.00,,,0.00,meteohub,2013-08-30 19:07:00,
2013-08-30 13:12:00,77.5,37.9,29.78,NNW,338,3.0,8.0,24,0.00,,,0.00,meteohub,2013-08-30 19:12:00,
2013-08-30 13:17:00,77.5,37.9,29.78,NNW,347,1.0,8.0,24,0.00,,,0.00,meteohub,2013-08-30 19:17:00,
2013-08-30 13:22:00,77.2,36.5,29.78,NW,315,2.0,7.0,23,0.00,,,0.00,meteohub,2013-08-30 19:22:00,
2013-08-30 13:27:00,77.2,38.7,29.78,NNW,340,1.0,7.0,25,0.00,,,0.00,meteohub,2013-08-30 19:27:00,
2013-08-30 13:32:00,77.2,38.7,29.78,WNW,302,3.0,7.0,25,0.00,,,0.00,meteohub,2013-08-30 19:32:00,
2013-08-30 13:37:00,77.2,36.5,29.78,NW,324,4.0,9.0,23,0.00,,,0.00,meteohub,2013-08-30 19:37:00,
2013-08-30 13:42:00,76.5,36.0,29.78,WNW,301,3.0,9.0,23,0.00,,,0.00,meteohub,2013-08-30 19:42:00,
2013-08-30 13:47:00,76.8,37.2,29.78,NW,326,0.0,9.0,24,0.00,,,0.00,meteohub,2013-08-30 19:47:00,
2013-08-30 13:52:00,78.3,38.5,29.78,NW,311,1.0,7.0,24,0.00,,,0.00,meteohub,2013-08-30 19:52:00,
2013-08-30 13:57:00,78.3,36.3,29.77,NNW,333,2.0,7.0,22,0.00,,,0.00,meteohub,2013-08-30 19:57:00,
2013-08-30 14:02:00,77.9,37.0,29.77,NW,321,7.0,7.0,23,0.00,,,0.00,meteohub,2013-08-30 20:02:00,
2013-08-30 14:07:00,77.7,35.8,29.77,NW,314,5.0,9.0,22,0.00,,,0.00,meteohub,2013-08-30 20:07:00,
2013-08-30 14:12:00,77.4,36.7,29.77,NNW,334,4.0,9.0,23,0.00,,,0.00,meteohub,2013-08-30 20:12:00,
2013-08-30 14:17:00,77.9,38.1,29.76,NW,314,1.0,9.0,24,0.00,,,0.00,meteohub,2013-08-30 20:17:00,
2013-08-30 14:22:00,79.0,36.9,29.76,WNW,285,2.0,7.0,22,0.00,,,0.00,meteohub,2013-08-30 20:22:00,
2013-08-30 14:27:00,78.6,36.7,29.76,NNW,333,3.0,9.0,22,0.00,,,0.00,meteohub,2013-08-30 20:27:00,
2013-08-30 14:32:00,78.3,35.1,29.76,NNW,331,5.0,9.0,21,0.00,,,0.00,meteohub,2013-08-30 20:32:00,
2013-08-30 14:37:00,78.3,36.3,29.75,WNW,301,2.0,9.0,22,0.00,,,0.00,meteohub,2013-08-30 20:37:00,
2013-08-30 14:42:00,79.5,36.1,29.75,NNW,330,4.0,8.0,21,0.00,,,0.00,meteohub,2013-08-30 20:42:00,
2013-08-30 14:47:00,80.2,34.2,29.75,SW,223,0.0,6.0,19,0.00,,,0.00,meteohub,2013-08-30 20:47:00,
2013-08-30 14:52:00,80.2,34.2,29.75,West,262,0.0,4.0,19,0.00,,,0.00,meteohub,2013-08-30 20:52:00,
2013-08-30 14:57:00,79.9,35.2,29.75,NW,316,0.0,4.0,20,0.00,,,0.00,meteohub,2013-08-30 20:57:00,
2013-08-30 15:02:00,80.1,34.2,29.75,NE,43,4.0,4.0,19,0.00,,,0.00,meteohub,2013-08-30 21:02:00,
2013-08-30 15:07:00,79.3,33.4,29.74,NW,324,2.0,5.0,19,0.00,,,0.00,meteohub,2013-08-30 21:07:00,
2013-08-30 15:12:00,79.3,36.0,29.74,NNW,328,1.0,5.0,21,0.00,,,0.00,meteohub,2013-08-30 21:12:00,
2013-08-30 15:17:00,81.0,36.1,29.74,SW,228,0.0,5.0,20,0.00,,,0.00,meteohub,2013-08-30 21:17:00,
2013-08-30 15:22:00,81.5,36.5,29.74,ESE,117,1.0,5.0,20,0.00,,,0.00,meteohub,2013-08-30 21:22:00,
2013-08-30 15:27:00,81.9,35.6,29.73,NW,311,2.0,5.0,19,0.00,,,0.00,meteohub,2013-08-30 21:27:00,
2013-08-30 15:32:00,81.3,36.5,29.73,SSW,205,1.0,7.0,20,0.00,,,0.00,meteohub,2013-08-30 21:32:00,
2013-08-30 15:37:00,82.0,37.0,29.73,NW,319,0.0,7.0,20,0.00,,,0.00,meteohub,2013-08-30 21:37:00,
2013-08-30 15:42:00,81.9,34.2,29.73,NNW,330,4.0,7.0,18,0.00,,,0.00,meteohub,2013-08-30 21:42:00,
2013-08-30 15:48:00,81.1,36.3,29.73,NW,314,1.0,5.0,20,0.00,,,0.00,meteohub,2013-08-30 21:48:00,
2013-08-30 15:53:00,81.1,35.1,29.73,NNW,331,3.0,8.0,19,0.00,,,0.00,meteohub,2013-08-30 21:53:00,
2013-08-30 15:58:00,80.1,35.4,29.73,NNW,338,3.0,8.0,20,0.00,,,0.00,meteohub,2013-08-30 21:58:00,
2013-08-30 16:03:00,79.2,35.8,29.73,NW,316,3.0,8.0,21,0.00,,,0.00,meteohub,2013-08-30 22:03:00,
2013-08-30 16:08:00,79.0,34.5,29.72,NW,308,1.0,7.0,20,0.00,,,0.00,meteohub,2013-08-30 22:08:00,
2013-08-30 16:13:00,79.5,36.1,29.72,NNW,339,2.0,7.0,21,0.00,,,0.00,meteohub,2013-08-30 22:13:00,
2013-08-30 16:18:00,80.4,36.9,29.71,WNW,288,1.0,6.0,21,0.00,,,0.00,meteohub,2013-08-30 22:18:00,
2013-08-30 16:23:00,81.3,37.6,29.71,South,179,0.0,4.0,21,0.00,,,0.00,meteohub,2013-08-30 22:23:00,
2013-08-30 16:28:00,81.1,35.1,29.71,WNW,301,1.0,4.0,19,0.00,,,0.00,meteohub,2013-08-30 22:28:00,
2013-08-30 16:33:00,80.2,35.6,29.71,WNW,302,1.0,3.0,20,0.00,,,0.00,meteohub,2013-08-30 22:33:00,
2013-08-30 16:38:00,79.5,36.1,29.71,NNW,339,4.0,4.0,21,0.00,,,0.00,meteohub,2013-08-30 22:38:00,
2013-08-30 16:44:00,78.8,36.7,29.71,NW,321,2.0,6.0,22,0.00,,,0.00,meteohub,2013-08-30 22:44:00,
2013-08-30 16:49:00,77.7,37.0,29.71,WSW,256,0.0,6.0,23,0.00,,,0.00,meteohub,2013-08-30 22:49:00,
2013-08-30 16:54:00,77.2,36.5,29.71,WSW,249,1.0,6.0,23,0.00,,,0.00,meteohub,2013-08-30 22:54:00,
2013-08-30 16:59:00,76.6,37.2,29.71,WSW,249,0.0,4.0,24,0.00,,,0.00,meteohub,2013-08-30 22:59:00,
2013-08-30 17:04:00,76.3,36.9,29.71,WSW,249,0.0,3.0,24,0.00,,,0.00,meteohub,2013-08-30 23:04:00,
2013-08-30 17:09:00,75.9,37.6,29.71,SW,223,0.0,1.0,25,0.00,,,0.00,meteohub,2013-08-30 23:09:00,
2013-08-30 17:14:00,75.6,38.3,29.71,East,80,2.0,2.0,26,0.00,,,0.00,meteohub,2013-08-30 23:14:00,
2013-08-30 17:20:00,75.2,37.0,29.72,NW,312,0.0,1.0,25,0.00,,,0.00,meteohub,2013-08-30 23:20:00,
2013-08-30 17:25:00,74.7,37.6,29.71,West,266,0.0,3.0,26,0.00,,,0.00,meteohub,2013-08-30 23:25:00,
2013-08-30 17:30:00,74.3,37.2,29.72,West,266,0.0,3.0,26,0.00,,,0.00,meteohub,2013-08-30 23:30:00,
2013-08-30 17:35:00,74.1,37.9,29.72,West,266,0.0,2.0,27,0.00,,,0.00,meteohub,2013-08-30 23:35:00,
2013-08-30 17:40:00,74.1,37.9,29.72,West,266,0.0,1.0,27,0.00,,,0.00,meteohub,2013-08-30 23:40:00,
2013-08-30 17:45:00,73.9,38.8,29.72,SSW,197,1.0,2.0,28,0.00,,,0.00,meteohub,2013-08-30 23:45:00,
2013-08-30 17:50:00,73.0,39.7,29.72,SW,220,1.0,3.0,30,0.00,,,0.00,meteohub,2013-08-30 23:50:00,
2013-08-30 17:55:00,72.3,39.2,29.72,South,191,1.0,3.0,30,0.00,,,0.00,meteohub,2013-08-30 23:55:00,
2013-08-30 18:01:00,71.8,39.6,29.72,SSW,205,2.0,4.0,31,0.00,,,0.00,meteohub,2013-08-31 00:01:00,
2013-08-30 18:06:00,71.4,38.3,29.72,SSW,212,3.0,4.0,30,0.00,,,0.00,meteohub,2013-08-31 00:06:00,
2013-08-30 18:11:00,71.4,40.1,29.72,WSW,250,3.0,5.0,32,0.00,,,0.00,meteohub,2013-08-31 00:11:00,
2013-08-30 18:16:00,71.8,39.6,29.72,ESE,117,2.0,8.0,31,0.00,,,0.00,meteohub,2013-08-31 00:16:00,
2013-08-30 18:21:00,72.3,39.9,29.72,SE,127,1.0,8.0,31,0.00,,,0.00,meteohub,2013-08-31 00:21:00,
2013-08-30 18:27:00,72.7,38.7,29.72,SSE,165,1.0,8.0,29,0.00,,,0.00,meteohub,2013-08-31 00:27:00,
2013-08-30 18:32:00,73.2,39.0,29.72,SSE,153,1.0,4.0,29,0.00,,,0.00,meteohub,2013-08-31 00:32:00,
2013-08-30 18:37:00,73.8,39.6,29.72,SSE,150,0.0,2.0,29,0.00,,,0.00,meteohub,2013-08-31 00:37:00,
2013-08-30 18:42:00,73.9,40.5,29.72,SSE,165,0.0,2.0,30,0.00,,,0.00,meteohub,2013-08-31 00:42:00,
2013-08-30 18:47:00,73.2,39.9,29.71,SSE,163,0.0,2.0,30,0.00,,,0.00,meteohub,2013-08-31 00:47:00,
2013-08-30 18:52:00,72.7,40.3,29.71,SSE,153,0.0,2.0,31,0.00,,,0.00,meteohub,2013-08-31 00:52:00,
2013-08-30 18:57:00,71.6,40.1,29.71,SSE,152,1.0,2.0,32,0.00,,,0.00,meteohub,2013-08-31 00:57:00,
2013-08-30 19:02:00,70.5,40.1,29.71,SSE,162,1.0,2.0,33,0.00,,,0.00,meteohub,2013-08-31 01:02:00,
2013-08-30 19:07:00,69.6,39.9,29.71,South,183,1.0,2.0,34,0.00,,,0.00,meteohub,2013-08-31 01:07:00,
2013-08-30 19:12:00,69.1,39.6,29.71,SE,140,1.0,2.0,34,0.00,,,0.00,meteohub,2013-08-31 01:12:00,
2013-08-30 19:17:00,68.5,39.0,29.71,SE,133,1.0,3.0,34,0.00,,,0.00,meteohub,2013-08-31 01:17:00,
2013-08-30 19:22:00,68.2,38.7,29.71,SE,142,1.0,3.0,34,0.00,,,0.00,meteohub,2013-08-31 01:22:00,
2013-08-30 19:27:00,67.6,38.3,29.72,ESE,117,2.0,3.0,34,0.00,,,0.00,meteohub,2013-08-31 01:27:00,
2013-08-30 19:32:00,67.6,39.0,29.72,ESE,117,1.0,3.0,35,0.00,,,0.00,meteohub,2013-08-31 01:32:00,
2013-08-30 19:37:00,67.5,38.8,29.73,ESE,117,1.0,3.0,35,0.00,,,0.00,meteohub,2013-08-31 01:37:00,
2013-08-30 19:42:00,66.9,39.0,29.73,SE,127,1.0,3.0,36,0.00,,,0.00,meteohub,2013-08-31 01:42:00,
2013-08-30 19:47:00,66.6,38.8,29.73,SE,127,0.0,2.0,36,0.00,,,0.00,meteohub,2013-08-31 01:47:00,
2013-08-30 19:52:00,66.6,38.8,29.73,SE,127,0.0,1.0,36,0.00,,,0.00,meteohub,2013-08-31 01:52:00,
2013-08-30 19:57:00,66.2,39.2,29.73,SE,127,0.0,1.0,37,0.00,,,0.00,meteohub,2013-08-31 01:57:00,
2013-08-30 20:02:00,66.0,39.0,29.73,SE,127,0.0,1.0,37,0.00,,,0.00,meteohub,2013-08-31 02:02:00,
2013-08-30 20:07:00,66.4,38.7,29.73,SE,127,0.0,1.0,36,0.00,,,0.00,meteohub,2013-08-31 02:07:00,
2013-08-30 20:12:00,66.6,38.8,29.73,SE,127,0.0,1.0,36,0.00,,,0.00,meteohub,2013-08-31 02:12:00,
2013-08-30 20:17:00,66.6,39.6,29.74,SE,127,0.0,1.0,37,0.00,,,0.00,meteohub,2013-08-31 02:17:00,
2013-08-30 20:22:00,66.6,39.6,29.73,SE,127,0.0,1.0,37,0.00,,,0.00,meteohub,2013-08-31 02:22:00,
2013-08-30 20:27:00,66.6,39.6,29.73,SE,127,0.0,1.0,37,0.00,,,0.00,meteohub,2013-08-31 02:27:00,
2013-08-30 20:33:00,66.2,39.9,29.73,SE,127,0.0,1.0,38,0.00,,,0.00,meteohub,2013-08-31 02:33:00,
2013-08-30 20:38:00,65.7,39.4,29.73,SE,127,0.0,1.0,38,0.00,,,0.00,meteohub,2013-08-31 02:38:00,
2013-08-30 20:43:00,65.1,39.6,29.73,SE,127,0.0,1.0,39,0.00,,,0.00,meteohub,2013-08-31 02:43:00,
2013-08-30 20:48:00,64.6,40.3,29.74,SE,127,0.0,1.0,41,0.00,,,0.00,meteohub,2013-08-31 02:48:00,
2013-08-30 20:53:00,64.2,40.1,29.74,West,277,0.0,1.0,41,0.00,,,0.00,meteohub,2013-08-31 02:53:00,
2013-08-30 20:58:00,63.5,39.9,29.74,SE,145,1.0,2.0,42,0.00,,,0.00,meteohub,2013-08-31 02:58:00,
2013-08-30 21:04:00,63.0,40.1,29.74,SE,139,1.0,2.0,43,0.00,,,0.00,meteohub,2013-08-31 03:04:00,
2013-08-30 21:09:00,63.1,40.3,29.74,SE,129,2.0,2.0,43,0.00,,,0.00,meteohub,2013-08-31 03:09:00,
2013-08-30 21:14:00,63.3,39.9,29.74,SE,133,3.0,3.0,42,0.00,,,0.00,meteohub,2013-08-31 03:14:00,
2013-08-30 21:19:00,63.9,41.0,29.74,South,169,1.0,5.0,43,0.00,,,0.00,meteohub,2013-08-31 03:19:00,
2013-08-30 21:24:00,63.9,41.0,29.74,South,170,1.0,5.0,43,0.00,,,0.00,meteohub,2013-08-31 03:24:00,
2013-08-30 21:30:00,63.7,41.4,29.74,SE,141,2.0,5.0,44,0.00,,,0.00,meteohub,2013-08-31 03:30:00,
2013-08-30 21:35:00,63.5,41.7,29.74,SSW,203,1.0,5.0,45,0.00,,,0.00,meteohub,2013-08-31 03:35:00,
2013-08-30 21:40:00,63.7,41.9,29.74,SE,133,1.0,5.0,45,0.00,,,0.00,meteohub,2013-08-31 03:40:00,
2013-08-30 21:45:00,63.7,41.9,29.74,SE,127,2.0,5.0,45,0.00,,,0.00,meteohub,2013-08-31 03:45:00,
2013-08-30 21:51:00,63.5,41.7,29.73,ESE,117,4.0,5.0,45,0.00,,,0.00,meteohub,2013-08-31 03:51:00,
2013-08-30 21:56:00,63.5,41.7,29.74,ESE,106,3.0,5.0,45,0.00,,,0.00,meteohub,2013-08-31 03:56:00,
2013-08-30 22:01:00,63.7,41.9,29.74,SE,133,3.0,5.0,45,0.00,,,0.00,meteohub,2013-08-31 04:01:00,
2013-08-30 22:02:00,63.7,42.4,29.74,SE,124,1.0,5.0,46,0.00,,,0.00,meteohub,2013-08-31 04:02:00,
2013-08-30 22:03:00,63.7,42.4,29.74,SSE,152,2.0,5.0,46,0.00,,,0.00,meteohub,2013-08-31 04:03:00,
2013-08-30 22:04:00,63.5,42.3,29.74,SE,131,2.0,5.0,46,0.00,,,0.00,meteohub,2013-08-31 04:04:00,
2013-08-30 22:05:00,63.5,42.3,29.73,SSW,208,3.0,5.0,46,0.00,,,0.00,meteohub,2013-08-31 04:05:00,
2013-08-30 22:07:00,63.5,42.3,29.73,SSE,155,1.0,5.0,46,0.00,,,0.00,meteohub,2013-08-31 04:07:00,
2013-08-30 22:12:00,63.3,42.8,29.73,SSE,154,2.0,5.0,47,0.00,,,0.00,meteohub,2013-08-31 04:12:00,
2013-08-30 22:17:00,63.1,42.1,29.73,SW,228,2.0,4.0,46,0.00,,,0.00,meteohub,2013-08-31 04:17:00,
2013-08-30 22:22:00,63.0,42.4,29.73,SSE,150,2.0,4.0,47,0.00,,,0.00,meteohub,2013-08-31 04:22:00,
2013-08-30 22:28:00,62.8,42.8,29.73,SE,139,3.0,4.0,48,0.00,,,0.00,meteohub,2013-08-31 04:28:00,
2013-08-30 22:33:00,62.8,43.3,29.73,ESE,114,3.0,5.0,49,0.00,,,0.00,meteohub,2013-08-31 04:33:00,
2013-08-30 22:38:00,62.6,43.2,29.73,SSE,148,1.0,6.0,49,0.00,,,0.00,meteohub,2013-08-31 04:38:00,
2013-08-30 22:43:00,62.4,43.5,29.72,South,172,2.0,6.0,50,0.00,,,0.00,meteohub,2013-08-31 04:43:00,
2013-08-30 22:48:00,61.9,43.0,29.73,East,96,3.0,6.0,50,0.00,,,0.00,meteohub,2013-08-31 04:48:00,
2013-08-30 22:53:00,61.2,42.4,29.73,SE,134,1.0,6.0,50,0.00,,,0.00,meteohub,2013-08-31 04:53:00,
2013-08-30 22:59:00,60.8,42.6,29.73,SE,124,2.0,6.0,51,0.00,,,0.00,meteohub,2013-08-31 04:59:00,
2013-08-30 23:04:00,60.4,42.3,29.72,SE,129,3.0,5.0,51,0.00,,,0.00,meteohub,2013-08-31 05:04:00,
2013-08-30 23:09:00,60.4,43.2,29.72,SE,142,2.0,5.0,53,0.00,,,0.00,meteohub,2013-08-31 05:09:00,
2013-08-30 23:14:00,60.6,43.3,29.72,SSE,161,1.0,6.0,53,0.00,,,0.00,meteohub,2013-08-31 05:14:00,
2013-08-30 23:19:00,60.6,43.3,29.72,SE,141,3.0,6.0,53,0.00,,,0.00,meteohub,2013-08-31 05:19:00,
2013-08-30 23:24:00,60.6,43.3,29.72,SE,125,3.0,6.0,53,0.00,,,0.00,meteohub,2013-08-31 05:24:00,
2013-08-30 23:29:00,60.8,43.0,29.72,SE,124,3.0,6.0,52,0.00,,,0.00,meteohub,2013-08-31 05:29:00,
2013-08-30 23:35:00,61.2,43.3,29.72,SE,131,3.0,6.0,52,0.00,,,0.00,meteohub,2013-08-31 05:35:00,
2013-08-30 23:40:00,61.2,43.0,29.72,SE,127,3.0,6.0,51,0.00,,,0.00,meteohub,2013-08-31 05:40:00,
2013-08-30 23:45:00,61.3,43.0,29.72,SSE,158,2.0,6.0,51,0.00,,,0.00,meteohub,2013-08-31 05:45:00,
2013-08-30 23:50:00,61.2,43.3,29.72,SSE,148,2.0,6.0,52,0.00,,,0.00,meteohub,2013-08-31 05:50:00,
2013-08-30 23:55:00,61.0,43.2,29.72,SSW,210,4.0,6.0,52,0.00,,,0.00,meteohub,2013-08-31 05:55:00,